DW6004 Weather Reports


Display with metric or nautical units.
time (UTC)temp
F
wind
direction
speed
MPH
gust
MPH
rain 1hr
in
rain 24hr
in
rain mn
in
humidity
%
barometer
mb
20260507140503 57 286 6.0 13.0 0.00 0.28 0.15 46 1010.0
20260507140024 57 274 5.0 11.0 0.00 0.28 0.15 49 1010.0
20260507135524 57 276 5.0 13.0 0.00 0.28 0.15 47 1010.0
20260507135003 57 279 5.0 13.0 0.00 0.28 0.15 53 1009.9
20260507134504 57 278 5.0 13.0 0.00 0.28 0.15 50 1010.0
20260507134004 57 312 5.0 13.0 0.00 0.28 0.15 51 1009.8
20260507133503 57 322 4.0 13.0 0.00 0.28 0.15 57 1010.0
20260507133004 56 292 4.0 10.0 0.00 0.28 0.15 56 1010.0
20260507132524 56 299 4.0 10.0 0.00 0.28 0.15 56 1010.2
20260507132004 56 319 4.0 10.0 0.00 0.28 0.15 61 1010.2
20260507131503 55 326 3.0 7.0 0.00 0.28 0.15 67 1010.0
20260507131003 55 329 4.0 11.0 0.00 0.28 0.15 66 1010.1
20260507130503 55 323 6.0 14.0 0.00 0.28 0.15 66 1010.0
20260507130004 54 320 6.0 14.0 0.00 0.28 0.15 65 1010.1
20260507125524 54 324 5.0 13.0 0.00 0.28 0.15 73 1009.9
20260507125003 53 332 4.0 13.0 0.00 0.28 0.15 76 1010.1
20260507124503 52 329 3.0 9.0 0.00 0.28 0.15 80 1010.1
20260507124004 51 321 3.0 9.0 0.00 0.28 0.15 79 1010.1
20260507123503 51 319 4.0 11.0 0.00 0.28 0.15 81 1010.0
20260507123004 50 313 4.0 11.0 0.00 0.28 0.15 82 1010.0
20260507122503 50 306 2.0 8.0 0.00 0.28 0.15 82 1009.9
20260507122004 50 309 2.0 7.0 0.00 0.28 0.15 83 1010.2
20260507121503 50 317 3.0 9.0 0.00 0.28 0.15 83 1010.1
20260507121004 50 308 4.0 10.0 0.00 0.28 0.15 84 1010.1
20260507120503 50 293 3.0 10.0 0.00 0.28 0.15 84 1009.9
20260507120005 50 281 3.0 9.0 0.00 0.28 0.15 84 1010.1
20260507115504 49 296 3.0 9.0 0.00 0.28 0.15 85 1010.1
20260507115003 49 316 2.0 6.0 0.00 0.28 0.15 86 1010.2
20260507114503 49 305 2.0 8.0 0.00 0.28 0.15 86 1009.8
20260507114003 49 297 2.0 8.0 0.00 0.28 0.15 86 1009.9
20260507113504 49 286 2.0 7.0 0.00 0.28 0.15 86 1009.9
20260507113004 49 281 2.0 7.0 0.00 0.28 0.15 86 1009.6
20260507112503 49 292 1.0 4.0 0.00 0.28 0.15 86 1009.6
20260507112003 49 293 1.0 7.0 0.00 0.28 0.15 86 1009.7
20260507111504 49 288 2.0 7.0 0.00 0.28 0.15 86 1009.4
20260507111004 49 295 2.0 4.0 0.00 0.28 0.15 87 1009.3
20260507110503 49 292 2.0 6.0 0.00 0.28 0.15 87 1009.4
20260507110003 49 281 1.0 6.0 0.00 0.28 0.15 87 1009.4
20260507105503 49 281 1.0 6.0 0.00 0.28 0.15 87 1009.3
20260507105004 49 300 1.0 4.0 0.00 0.28 0.15 87 1009.2
20260507104503 49 301 1.0 7.0 0.00 0.28 0.15 87 1009.2
20260507104004 49 300 2.0 7.0 0.00 0.28 0.15 87 1009.1
20260507103503 49 297 2.0 6.0 0.00 0.28 0.15 87 1009.0
20260507103004 49 292 2.0 6.0 0.00 0.28 0.15 87 1008.9
20260507102504 49 292 2.0 6.0 0.00 0.28 0.15 87 1009.2
20260507102003 49 289 2.0 4.0 0.00 0.28 0.15 87 1008.6
20260507101503 49 285 2.0 4.0 0.00 0.28 0.15 87 1009.0
20260507101025 49 280 2.0 6.0 0.00 0.28 0.15 87 1008.8
20260507100524 49 283 2.0 6.0 0.00 0.28 0.15 87 1008.7
20260507100025 49 302 1.0 4.0 0.00 0.28 0.15 87 1008.5
20260507095503 49 303 2.0 7.0 0.00 0.28 0.15 87 1008.4
20260507095003 49 301 2.0 7.0 0.00 0.28 0.15 87 1008.4
20260507094503 49 298 3.0 9.0 0.00 0.28 0.15 87 1008.5
20260507094004 49 299 3.0 9.0 0.00 0.28 0.15 88 1008.4
20260507093503 49 299 3.0 8.0 0.00 0.28 0.15 88 1008.5
20260507093024 49 301 3.0 10.0 0.00 0.28 0.15 88 1008.8
20260507092503 49 301 3.0 10.0 0.00 0.28 0.15 88 1008.5
20260507092025 49 295 3.0 8.0 0.00 0.28 0.15 88 1008.6
20260507091503 49 290 3.0 9.0 0.00 0.28 0.15 88 1008.5
20260507091004 49 296 3.0 9.0 0.01 0.28 0.15 88 1008.6
20260507090503 49 304 3.0 8.0 0.02 0.28 0.15 89 1008.6
20260507090024 49 304 3.0 8.0 0.02 0.28 0.15 89 1008.4
20260507085504 49 301 2.0 7.0 0.02 0.28 0.15 89 1008.7
20260507085004 49 303 2.0 7.0 0.03 0.28 0.15 89 1008.7
20260507084503 49 293 1.0 7.0 0.04 0.28 0.15 89 1008.4
20260507084003 49 287 1.0 6.0 0.04 0.28 0.15 89 1008.4
20260507083503 49 298 1.0 3.0 0.05 0.28 0.15 88 1008.5
20260507083004 49 312 1.0 4.0 0.06 0.28 0.15 88 1008.6
20260507082503 50 303 2.0 6.0 0.06 0.28 0.15 88 1008.6
20260507082004 50 295 2.0 6.0 0.06 0.28 0.15 88 1008.3
20260507081503 50 307 2.0 8.0 0.07 0.28 0.15 88 1008.3
20260507081003 50 291 2.0 8.0 0.06 0.27 0.14 88 1008.3
20260507080524 50 272 2.0 8.0 0.06 0.27 0.14 88 1008.5
20260507080004 50 270 2.0 4.0 0.06 0.26 0.13 88 1009.0
20260507075524 50 279 2.0 8.0 0.06 0.26 0.13 88 1008.7
20260507075024 50 271 3.0 8.0 0.06 0.25 0.13 88 1008.4
20260507074503 50 260 2.0 6.0 0.06 0.25 0.12 88 1008.7
20260507074003 51 266 2.0 6.0 0.06 0.24 0.11 88 1008.7
20260507073524 51 286 2.0 6.0 0.06 0.23 0.10 88 1009.0
20260507073003 51 284 2.0 7.0 0.06 0.22 0.09 88 1008.5
20260507072503 51 282 2.0 8.0 0.07 0.22 0.09 88 1008.8
20260507072025 51 280 2.0 8.0 0.07 0.22 0.09 88 1008.7
20260507071524 51 260 3.0 8.0 0.07 0.21 0.08 87 1008.7
20260507071003 51 270 3.0 8.0 0.07 0.21 0.08 87 1008.8
20260507070503 51 292 2.0 8.0 0.07 0.21 0.08 87 1008.6
20260507070005 51 291 2.0 6.0 0.07 0.20 0.07 86 1008.4
20260507065503 51 293 2.0 7.0 0.07 0.20 0.07 86 1008.7
20260507065003 51 294 3.0 9.0 0.06 0.20 0.07 85 1008.6
20260507064503 52 282 2.0 9.0 0.06 0.19 0.06 85 1008.5
20260507064004 52 270 2.0 7.0 0.04 0.18 0.05 85 1008.7
20260507063525 52 281 2.0 7.0 0.04 0.17 0.04 84 1008.6
20260507063004 52 305 3.0 8.0 0.03 0.16 0.03 83 1008.4
20260507062504 53 304 3.0 9.0 0.02 0.15 0.02 82 1008.2
20260507062003 53 280 4.0 10.0 0.02 0.15 0.02 82 1008.1
20260507061504 53 278 4.0 10.0 0.01 0.14 0.01 82 1008.6
20260507061003 53 305 2.0 6.0 0.01 0.14 0.01 81 1008.2
20260507060503 53 294 2.0 6.0 0.00 0.13 0.00 80 1007.5
20260507060003 53 291 2.0 4.0 0.00 0.13 0.00 80 1008.4
20260507055504 53 301 2.0 8.0 0.00 0.13 0.00 79 1008.0
20260507055004 54 301 3.0 9.0 0.00 0.13 0.00 79 1007.8
20260507054504 54 297 3.0 9.0 0.00 0.13 0.00 79 1008.2
20260507054004 54 327 3.0 9.0 0.00 0.13 0.00 78 1008.0
20260507053524 54 329 4.0 11.0 0.00 0.13 0.00 78 1007.9
20260507053024 54 308 3.0 11.0 0.00 0.13 0.00 77 1007.4
20260507052504 54 302 3.0 7.0 0.00 0.13 0.00 77 1007.6
20260507052004 55 313 3.0 8.0 0.00 0.13 0.00 77 1007.7
20260507051504 55 302 2.0 8.0 0.00 0.13 0.00 76 1007.6
20260507051004 55 281 3.0 6.0 0.00 0.13 0.00 76 1007.6
20260507050504 55 298 3.0 10.0 0.00 0.13 0.00 76 1007.8
20260507050005 55 301 3.0 10.0 0.00 0.13 0.00 76 1008.1
20260507045503 55 295 3.0 9.0 0.00 0.13 0.00 76 1007.9
20260507045003 55 295 3.0 9.0 0.00 0.13 0.00 76 1008.1
20260507044504 55 288 3.0 8.0 0.00 0.13 0.00 76 1007.8
20260507044003 55 288 3.0 8.0 0.00 0.13 0.00 76 1007.6
20260507043504 55 283 3.0 8.0 0.00 0.13 0.00 76 1007.8
20260507043003 56 277 3.0 8.0 0.00 0.13 0.00 76 1007.9
20260507042524 56 276 3.0 8.0 0.00 0.13 0.00 76 1007.9
20260507042003 56 272 3.0 8.0 0.00 0.13 0.00 76 1008.0
20260507041503 56 272 2.0 7.0 0.00 0.13 0.00 76 1008.0
20260507041003 56 272 3.0 7.0 0.00 0.13 0.00 76 1008.1
20260507040504 56 277 3.0 7.0 0.00 0.13 0.00 77 1007.8
20260507040003 56 276 2.0 6.0 0.00 0.13 0.00 77 1008.2
20260507035504 56 278 1.0 4.0 0.00 0.13 0.13 78 1008.0
20260507035024 56 296 1.0 4.0 0.00 0.13 0.13 78 1008.0
20260507034503 56 307 2.0 4.0 0.00 0.13 0.13 78 1007.9
20260507034003 56 326 2.0 6.0 0.00 0.13 0.13 78 1007.8
20260507033503 57 331 3.0 7.0 0.00 0.13 0.13 79 1007.8
20260507033003 57 317 3.0 10.0 0.00 0.13 0.13 78 1007.8
20260507032503 57 301 3.0 10.0 0.00 0.13 0.13 78 1007.9
20260507032025 57 301 2.0 6.0 0.00 0.13 0.13 78 1007.7
20260507031503 57 304 2.0 7.0 0.00 0.13 0.13 79 1007.8
20260507031004 57 299 1.0 7.0 0.00 0.13 0.13 79 1007.7
20260507030525 57 279 2.0 10.0 0.00 0.13 0.13 79 1007.5
20260507030024 57 280 2.0 10.0 0.00 0.13 0.13 78 1007.7
20260507025504 57 291 2.0 7.0 0.00 0.13 0.13 79 1007.6
20260507025003 58 301 4.0 13.0 0.00 0.13 0.13 78 1007.7
20260507024503 58 312 4.0 13.0 0.00 0.13 0.13 78 1007.6
20260507024004 58 303 4.0 11.0 0.00 0.13 0.13 79 1007.7
20260507023504 58 291 3.0 9.0 0.00 0.13 0.13 80 1007.9
20260507023003 58 291 4.0 9.0 0.01 0.13 0.13 82 1007.9
20260507022525 59 303 3.0 9.0 0.03 0.13 0.13 82 1008.0
20260507022004 59 305 2.0 8.0 0.03 0.13 0.13 84 1008.0
20260507021503 59 300 2.0 9.0 0.03 0.13 0.13 84 1007.9
20260507021025 60 314 3.0 9.0 0.03 0.13 0.13 84 1007.8
20260507020504 60 311 4.0 11.0 0.03 0.13 0.13 84 1007.7
20260507020003 60 305 4.0 11.0 0.03 0.13 0.13 84 1007.7
20260507015504 61 307 4.0 10.0 0.03 0.13 0.13 83 1007.7
20260507015003 61 309 4.0 10.0 0.02 0.13 0.13 83 1007.7
20260507014504 62 309 4.0 10.0 0.02 0.13 0.13 83 1007.6
20260507014025 62 307 4.0 19.0 0.02 0.13 0.13 83 1007.3
20260507013504 63 308 5.0 19.0 0.02 0.13 0.13 84 1007.2
20260507013004 64 297 4.0 14.0 0.02 0.12 0.12 84 1007.1
20260507012524 64 268 4.0 15.0 0.00 0.10 0.11 84 1007.1
20260507012025 64 229 4.0 15.0 0.00 0.10 0.10 85 1006.9
20260507011504 64 207 3.0 10.0 0.00 0.10 0.10 85 1006.5
20260507011024 64 203 3.0 8.0 0.00 0.10 0.10 85 1006.3
20260507010503 64 202 3.0 9.0 0.00 0.10 0.10 86 1006.3
20260507010003 64 203 3.0 9.0 0.00 0.10 0.10 85 1006.4
20260507005524 63 206 2.0 6.0 0.00 0.10 0.10 85 1006.3
20260507005003 63 200 2.0 10.0 0.00 0.10 0.10 85 1006.4
20260507004503 63 214 1.0 10.0 0.00 0.10 0.10 85 1006.2
20260507004003 63 221 2.0 4.0 0.00 0.10 0.10 85 1006.2
20260507003504 63 216 2.0 6.0 0.00 0.10 0.10 85 1006.2
20260507003004 63 218 2.0 6.0 0.00 0.10 0.10 85 1006.3
20260507002503 63 215 2.0 4.0 0.00 0.10 0.10 85 1006.0
20260507002025 63 214 2.0 6.0 0.00 0.10 0.10 85 1006.1
20260507001503 63 208 2.0 6.0 0.00 0.10 0.10 84 1006.2
20260507001004 63 209 2.0 6.0 0.00 0.10 0.10 84 1006.1
20260507000505 64 210 2.0 8.0 0.00 0.10 0.10 84 1006.1
20260507000003 64 207 3.0 8.0 0.00 0.10 0.10 84 1006.3
20260506235504 64 209 3.0 8.0 0.00 0.10 0.10 84 1006.3
20260506235025 64 212 3.0 7.0 0.00 0.10 0.10 84 1006.4
20260506234504 64 217 3.0 7.0 0.00 0.10 0.10 84 1006.1
20260506234004 64 214 3.0 7.0 0.00 0.10 0.10 84 1006.0
20260506233503 64 204 3.0 13.0 0.00 0.10 0.10 84 1005.9
20260506233004 64 211 3.0 14.0 0.00 0.10 0.10 84 1005.7
20260506232525 64 222 4.0 14.0 0.00 0.10 0.10 84 1005.9
20260506232004 64 218 4.0 8.0 0.00 0.10 0.10 84 1006.1
20260506231525 64 211 5.0 14.0 0.00 0.10 0.10 84 1006.3
20260506231004 64 210 5.0 14.0 0.00 0.10 0.10 84 1006.1
20260506230503 64 212 5.0 11.0 0.00 0.10 0.10 84 1006.2
20260506230004 64 214 5.0 14.0 0.00 0.10 0.10 84 1006.1
20260506225503 64 219 5.0 14.0 0.00 0.10 0.10 84 1006.1
20260506225024 64 228 4.0 9.0 0.00 0.10 0.10 84 1006.2
20260506224504 64 225 4.0 11.0 0.00 0.10 0.10 84 1005.9
20260506224003 65 220 4.0 11.0 0.00 0.10 0.10 84 1005.8
20260506223525 65 223 5.0 11.0 0.00 0.10 0.10 84 1005.7
20260506223003 65 215 5.0 11.0 0.00 0.10 0.10 84 1005.6
20260506222504 65 213 5.0 14.0 0.00 0.10 0.10 84 1005.8
20260506222003 64 218 5.0 14.0 0.00 0.10 0.10 84 1005.9
20260506221504 65 211 5.0 14.0 0.00 0.10 0.10 85 1005.7
20260506221003 64 213 5.0 11.0 0.00 0.10 0.10 85 1005.7
20260506220503 64 226 6.0 13.0 0.00 0.10 0.10 85 1005.7
20260506220004 64 222 6.0 21.0 0.00 0.10 0.10 85 1005.9
20260506215504 64 215 6.0 21.0 0.00 0.10 0.10 86 1005.5
20260506215004 64 218 6.0 21.0 0.00 0.10 0.10 86 1005.7
20260506214504 64 218 7.0 14.0 0.00 0.10 0.10 86 1005.7
20260506214004 64 219 7.0 14.0 0.00 0.10 0.10 86 1005.5
20260506213525 64 217 6.0 14.0 0.00 0.10 0.10 87 1005.4
20260506213003 64 215 5.0 13.0 0.00 0.10 0.10 87 1005.5
20260506212503 64 207 6.0 16.0 0.00 0.10 0.10 87 1005.3
20260506212025 64 208 6.0 16.0 0.00 0.10 0.10 87 1005.5
20260506211504 63 214 5.0 15.0 0.00 0.10 0.10 88 1005.4
20260506211024 63 214 5.0 11.0 0.00 0.10 0.10 88 1005.3
20260506210524 63 211 5.0 10.0 0.00 0.10 0.10 88 1005.1
20260506210004 63 205 4.0 10.0 0.00 0.10 0.10 88 1005.2
20260506205504 63 219 4.0 17.0 0.00 0.10 0.10 88 1005.3
20260506205003 63 223 5.0 17.0 0.00 0.10 0.10 88 1005.3
20260506204504 63 206 5.0 13.0 0.01 0.10 0.10 88 1005.2
20260506204024 63 200 4.0 11.0 0.01 0.10 0.10 88 1005.2
20260506203504 63 210 4.0 11.0 0.01 0.10 0.10 88 1005.3
20260506203003 63 205 5.0 17.0 0.01 0.10 0.10 87 1005.3
20260506202503 63 202 5.0 17.0 0.02 0.10 0.10 87 1005.1
20260506202004 63 206 4.0 11.0 0.04 0.10 0.10 87 1005.4
20260506201504 63 209 3.0 8.0 0.04 0.10 0.10 87 1005.2
20260506201004 63 211 3.0 10.0 0.05 0.10 0.10 87 1005.3
20260506200503 63 209 3.0 10.0 0.06 0.10 0.10 87 1005.5
20260506200025 63 197 2.0 9.0 0.06 0.10 0.10 86 1005.6
20260506195503 63 194 1.0 6.0 0.06 0.10 0.10 86 1005.8
20260506195003 63 210 1.0 4.0 0.06 0.10 0.10 85 1005.8
20260506194503 63 210 2.0 6.0 0.05 0.09 0.09 85 1005.8
20260506194004 63 214 3.0 6.0 0.06 0.09 0.09 85 1005.8
20260506193504 63 217 3.0 6.0 0.06 0.09 0.09 85 1005.9
20260506193004 64 223 3.0 7.0 0.05 0.09 0.09 85 1006.1
20260506192504 64 230 3.0 11.0 0.04 0.08 0.08 84 1006.0
20260506192025 64 229 4.0 11.0 0.03 0.07 0.07 83 1006.0
20260506191504 64 224 3.0 8.0 0.02 0.06 0.06 83 1006.0
20260506191004 64 222 3.0 8.0 0.02 0.06 0.06 81 1006.1
20260506190504 65 221 3.0 9.0 0.01 0.05 0.05 81 1006.1
20260506190003 65 213 3.0 10.0 0.00 0.04 0.04 81 1006.1
20260506185503 65 213 3.0 10.0 0.00 0.04 0.04 80 1006.1
20260506185003 65 217 3.0 11.0 0.00 0.04 0.04 79 1006.3
20260506184504 65 213 4.0 11.0 0.00 0.04 0.04 79 1005.8
20260506184004 66 204 4.0 13.0 0.00 0.04 0.04 79 1005.9
20260506183524 66 209 5.0 14.0 0.00 0.04 0.04 78 1006.1
20260506183003 66 218 6.0 16.0 0.00 0.04 0.04 78 1006.0
20260506182504 66 213 6.0 16.0 0.01 0.04 0.04 78 1006.1
20260506182003 66 209 4.0 13.0 0.02 0.04 0.04 79 1006.2
20260506181504 66 210 3.0 8.0 0.02 0.04 0.04 80 1006.3
20260506181003 66 201 4.0 11.0 0.02 0.04 0.04 79 1006.5
20260506180503 66 191 5.0 11.0 0.02 0.04 0.04 79 1006.4
20260506180003 66 190 4.0 11.0 0.02 0.04 0.04 80 1006.5
20260506175503 66 204 5.0 14.0 0.02 0.04 0.04 81 1006.8
20260506175003 66 207 5.0 14.0 0.02 0.04 0.04 81 1006.5
20260506174504 66 201 4.0 14.0 0.02 0.04 0.04 81 1006.5
20260506174004 65 208 4.0 14.0 0.02 0.04 0.04 81 1006.5
20260506173503 65 203 3.0 10.0 0.03 0.04 0.04 81 1006.6
20260506173003 65 187 3.0 9.0 0.03 0.04 0.04 80 1006.8
20260506172503 65 192 3.0 13.0 0.02 0.03 0.03 79 1006.3
20260506172004 65 184 4.0 13.0 0.02 0.02 0.02 78 1006.3
20260506171503 65 182 4.0 11.0 0.02 0.02 0.02 78 1006.4
20260506171003 66 192 4.0 11.0 0.02 0.02 0.02 78 1006.4
20260506170503 66 195 4.0 16.0 0.02 0.02 0.02 78 1006.6
20260506170024 66 198 5.0 16.0 0.02 0.02 0.02 77 1006.9
20260506165504 66 210 5.0 15.0 0.02 0.02 0.02 77 1007.0
20260506165003 66 212 4.0 15.0 0.02 0.02 0.02 76 1007.4
20260506164525 66 212 4.0 11.0 0.02 0.02 0.02 75 1007.3
20260506164003 66 216 5.0 16.0 0.02 0.02 0.02 74 1007.0
20260506163504 67 211 6.0 16.0 0.01 0.01 0.01 73 1007.3
20260506163003 67 201 5.0 16.0 0.01 0.01 0.01 72 1007.3
20260506162524 68 201 4.0 14.0 0.00 0.00 0.00 71 1007.3
20260506162003 68 206 6.0 17.0 0.00 0.00 0.00 70 1007.5
20260506161525 68 206 7.0 18.0 0.00 0.00 0.00 69 1007.8
20260506161003 69 201 7.0 26.0 0.00 0.00 0.00 67 1007.7
20260506160503 69 196 8.0 26.0 0.00 0.00 0.00 67 1007.8
20260506160025 69 202 8.0 21.0 0.00 0.00 0.00 67 1008.0
20260506155503 70 218 5.0 18.0 0.00 0.00 0.00 66 1007.9
20260506155003 70 215 4.0 11.0 0.00 0.00 0.00 67 1007.6
20260506154503 70 203 6.0 13.0 0.00 0.00 0.00 67 1007.6
20260506154004 70 202 7.0 21.0 0.00 0.00 0.00 67 1007.5
20260506153524 70 204 7.0 21.0 0.00 0.00 0.00 66 1007.7
20260506153003 70 211 6.0 16.0 0.00 0.00 0.00 65 1007.6
20260506152524 70 215 8.0 21.0 0.00 0.00 0.00 64 1007.7
20260506152003 70 218 8.0 21.0 0.00 0.00 0.00 63 1007.7
20260506151503 70 220 6.0 16.0 0.00 0.00 0.00 63 1008.0
20260506151003 70 201 7.0 18.0 0.00 0.00 0.00 63 1007.8
20260506150503 71 199 9.0 22.0 0.00 0.00 0.00 62 1008.0
20260506150003 71 205 8.0 22.0 0.00 0.00 0.00 61 1008.0
20260506145503 71 203 7.0 17.0 0.00 0.00 0.00 62 1007.9
20260506145003 71 199 6.0 17.0 0.00 0.00 0.00 62 1007.9
20260506144504 71 193 6.0 19.0 0.00 0.00 0.00 64 1008.0
20260506144024 71 187 6.0 19.0 0.00 0.00 0.00 65 1007.9
20260506143503 70 197 7.0 15.0 0.00 0.00 0.00 65 1007.7
20260506143004 70 209 7.0 19.0 0.00 0.00 0.00 64 1007.7
20260506142503 70 216 7.0 19.0 0.00 0.00 0.00 64 1007.9
20260506142003 70 218 6.0 17.0 0.00 0.00 0.00 64 1008.0
20260506141525 70 212 6.0 18.0 0.00 0.00 0.00 65 1007.9
20260506141003 70 208 6.0 18.0 0.00 0.00 0.00 65 1007.8